Flag for Germany Weather past 2 weeks in Sankt Ingbert, Saarland, Germany

Now
60 °F

Overcast.


Feels Like: 60 °F
Forecast: 44 / 58 °F
Wind: 5 mph from Northwest

Location: Saarbruecken / Ensheim

Current Time: Sep 5, 2015 at 4:39:09 PM

Latest Report: Sep 5, 2015 at 4:00 PM


Visibility: 22 mi

Pressure: 30.08 "Hg

Humidity: 65%

Dew point: 48 °F

Location of Sankt IngbertLocation

Historic Weather in Sankt Ingbert — Graph

°F

Sankt Ingbert temperature yesterday

Maximum temperature yesterday: 62 °F (at 6:00 PM)
Minimum temperature yesterday: 45 °F (at 4:00 AM)
Average temperature yesterday: 54 °F

Past Weeks' High & Low Weather Summary

 TemperatureHumidityPressure
High90 °F (Aug 30, 6:00 PM)100% (Sep 2, 5:00 AM)30.19 "Hg (Sep 2, 5:00 AM)
Low42 °F (Sep 5, 7:00 AM)27% (Aug 31, 3:00 PM)29.66 "Hg (Aug 24, 11:00 AM)
Average65 °F71%29.97 "Hg
* Reported Aug 21 3:00 PM — Sep 5 3:00 PM, Sankt Ingbert, Weather by CustomWeather, © 2015

Note: Actual official high and low records may vary slightly from our data, if they occured in-between our weather recording intervals... More about our weather records

Advertising

Sankt Ingbert weather history for previous 24 hours

 ConditionsComfort  
Time TempWeatherWind HumidityBarometerVisibility
3:00 PM
Sat, Sep 5
59 °FOvercast.7 mph66%30.08 "Hg19 mi
2:00 PM58 °FOvercast.6 mph74%30.08 "Hg16 mi
1:00 PM57 °FOvercast.7 mph69%30.08 "Hg12 mi
12:00 PM58 °FOvercast.7 mph73%30.07 "Hg12 mi
11:00 AM56 °FScattered clouds.6 mph76%30.07 "Hg11 mi
10:00 AM53 °FScattered clouds.5 mph84%30.07 "Hg7 mi
9:00 AM50 °FPassing clouds.3 mph93%30.08 "Hg6 mi
8:00 AM46 °FFog.2 mph99%30.08 "Hg5 mi
7:00 AM42 °FFog.1 mph99%30.07 "Hg4 mi
5:00 AM42 °FClear.1 mph98%30.06 "Hg19 mi
4:00 AM44 °FClear.1 mph98%30.06 "Hg25 mi
3:00 AM44 °FClear.1 mph97%30.06 "Hg31 mi
2:00 AM45 °FClear.1 mph95%30.07 "Hg31 mi
1:00 AM46 °FClear.2 mph92%30.06 "Hg31 mi
11:00 PM
Fri, Sep 4
49 °FClear.2 mph81%30.04 "Hg37 mi
10:00 PM51 °FPassing clouds.3 mph76%30.04 "Hg37 mi
9:00 PM52 °FPassing clouds.3 mph74%30.03 "Hg43 mi
8:00 PM55 °FPassing clouds.3 mph73%30.01 "Hg43 mi
7:00 PM59 °FPassing clouds.5 mph61%30.00 "Hg43 mi
6:00 PM62 °FScattered clouds.6 mph51%29.98 "Hg43 mi
5:00 PM61 °FPartly sunny.6 mph57%30.00 "Hg43 mi
4:00 PM61 °FPartly sunny.8 mph53%30.01 "Hg37 mi
Weather by CustomWeather, © 2015

See weather overviewHow to use our weather pages